Hebron, NE

5:21 AM CST on December 11, 2019 (GMT -0600)
Hebron Municipal

Weather History for KHJH - September, 2019

Change the Weather History Date:

Saturday, September 28, 2019

  Actual Average Record
Temperature  
Mean Temperature 57 °F -  
Max Temperature 61 °F 76 °F 94 °F (1952)
Min Temperature 52 °F 48 °F 28 °F (1951)
Degree Days  
Heating Degree Days 8    
Growing Degree Days 7 (Base 50)    
Moisture  
Dew Point 54 °F    
Average Humidity 85    
Maximum Humidity 98    
Minimum Humidity 63    
Precipitation  
Precipitation 0.07 in - - ()
Sea Level Pressure  
Sea Level Pressure 29.98 in    
Wind  
Wind Speed 11 mph (ENE)    
Max Wind Speed 20 mph    
Max Gust Speed 25 mph    
Visibility 9 miles    
Events Rain , Thunderstorm    
Averages and records for this station are not official NWS values.
T = Trace of Precipitation, MM = Missing Value Source: NWS Daily Summary

Daily Weather History Graph

Daily Weather History Graph

Search for Another Location

Airport or City:

Astronomy

Sep. 28, 2019 Rise Set
Actual Time 7:23 AM CDT 7:17 PM CDT
Civil Twilight 6:56 AM CDT 7:44 PM CDT
Nautical Twilight 6:24 AM CDT 8:16 PM CDT
Astronomical Twilight 5:53 AM CDT 8:48 PM CDT
Moon 7:01 AM CDT (9/28) 7:44 PM CDT (9/28)
Length of Visible Light 12h 48m
Length of Day
11h 54m
Waning Crescent, 0% of the Moon is Illuminated
Sep 28
Waning Crescent
Sep 28
New
Oct 5
First Quarter
Oct 13
Full
Oct 21
Last Quarter

Hourly Weather History & Observations

Time (CDT) Temp. Dew Point Humidity Pressure Visibility Wind Dir Wind Speed Gust Speed Precip Events Conditions
12:15 AM 62.8 °F 50.2 °F 63% 29.94 in 10.0 mi NNE 12.7 mph 21.9 mph N/A   Overcast
12:35 AM 62.1 °F 50.0 °F 65% 29.94 in 10.0 mi NNE 19.6 mph 25.3 mph N/A   Overcast
12:55 AM 61.3 °F 49.8 °F 66% 29.95 in 10.0 mi NNE 9.2 mph 25.3 mph N/A   Overcast
1:15 AM 60.8 °F 49.8 °F 67% 29.95 in 10.0 mi NNE 16.1 mph 25.3 mph N/A   Overcast
1:35 AM 60.3 °F 50.4 °F 70% 29.96 in 10.0 mi NNE 13.8 mph 19.6 mph N/A   Overcast
1:55 AM 59.9 °F 50.2 °F 70% 29.96 in 10.0 mi NNE 13.8 mph 23.0 mph N/A   Overcast
2:15 AM 59.4 °F 50.2 °F 72% 29.96 in 10.0 mi NE 10.4 mph 19.6 mph N/A   Overcast
2:35 AM 59.0 °F 50.2 °F 73% 29.95 in 10.0 mi NE 12.7 mph 20.7 mph N/A   Overcast
2:55 AM 59.0 °F 50.5 °F 73% 29.95 in 10.0 mi ENE 12.7 mph 16.1 mph N/A   Mostly Cloudy
3:15 AM 59.2 °F 50.5 °F 73% 29.95 in 10.0 mi NE 11.5 mph - N/A   Overcast
3:35 AM 59.0 °F 50.9 °F 74% 29.95 in 10.0 mi ENE 9.2 mph 17.3 mph N/A   Overcast
3:55 AM 59.0 °F 50.9 °F 74% 29.96 in 10.0 mi NE 11.5 mph - N/A   Overcast
4:15 AM 58.5 °F 50.9 °F 76% 29.97 in 10.0 mi ENE 9.2 mph - N/A   Overcast
4:35 AM 58.3 °F 50.9 °F 76% 29.97 in 10.0 mi NE 11.5 mph - N/A   Overcast
4:55 AM 57.4 °F 50.9 °F 79% 29.97 in 10.0 mi NNE 10.4 mph - N/A   Overcast
5:15 AM 55.8 °F 50.4 °F 82% 29.98 in 10.0 mi NE 8.1 mph - N/A   Scattered Clouds
5:35 AM 54.9 °F 50.2 °F 84% 29.98 in 10.0 mi NNE 10.4 mph - N/A   Scattered Clouds
5:55 AM 54.5 °F 50.2 °F 85% 29.98 in 10.0 mi NE 10.4 mph - N/A   Clear
6:15 AM 54.0 °F 50.2 °F 87% 29.98 in 10.0 mi NE 10.4 mph - N/A   Clear
6:35 AM 53.6 °F 50.4 °F 89% 29.99 in 10.0 mi NE 10.4 mph 16.1 mph N/A   Clear
6:55 AM 52.9 °F 50.0 °F 90% 30.01 in 10.0 mi NE 5.8 mph - N/A   Clear
7:15 AM 52.7 °F 50.0 °F 91% 30.01 in 10.0 mi NE 8.1 mph - N/A   Clear
7:35 AM 52.0 °F 49.5 °F 91% 30.00 in 10.0 mi NE 10.4 mph - N/A   Clear
7:55 AM 52.0 °F 49.1 °F 90% 30.01 in 10.0 mi NE 11.5 mph - N/A   Clear
8:15 AM 52.3 °F 49.1 °F 89% 30.02 in 10.0 mi NE 10.4 mph - N/A   Clear
8:35 AM 53.2 °F 49.1 °F 86% 30.03 in 10.0 mi ENE 11.5 mph 17.3 mph N/A   Clear
8:55 AM 54.1 °F 48.7 °F 82% 30.03 in 10.0 mi NE 13.8 mph 18.4 mph N/A   Clear
9:15 AM 55.8 °F 48.9 °F 78% 30.04 in 10.0 mi NE 11.5 mph 17.3 mph N/A   Clear
9:35 AM 57.2 °F 48.9 °F 74% 30.02 in 10.0 mi ENE 11.5 mph - N/A   Scattered Clouds
9:55 AM 57.4 °F 49.1 °F 74% 30.02 in 10.0 mi ENE 11.5 mph 17.3 mph N/A   Mostly Cloudy
10:15 AM 58.5 °F 50.2 °F 74% 30.03 in 10.0 mi ENE 12.7 mph - N/A   Mostly Cloudy
10:35 AM 59.2 °F 50.5 °F 73% 30.04 in 10.0 mi ENE 11.5 mph - N/A   Mostly Cloudy
10:55 AM 59.0 °F 51.1 °F 75% 30.05 in 10.0 mi East 11.5 mph - N/A   Overcast
11:15 AM 59.4 °F 51.3 °F 75% 30.04 in 10.0 mi ENE 11.5 mph - N/A   Overcast
11:35 AM 60.4 °F 52.0 °F 74% 30.03 in 10.0 mi ENE 10.4 mph 16.1 mph N/A   Overcast
11:55 AM 61.3 °F 52.3 °F 72% 30.03 in 10.0 mi ENE 12.7 mph 17.3 mph N/A   Overcast
12:15 PM 61.0 °F 52.5 °F 74% 30.04 in 10.0 mi NE 9.2 mph - N/A   Overcast
12:30 PM 60.6 °F 53.1 °F 76% 30.05 in 7.0 mi NE 4.6 mph - N/A Rain Rain
12:55 PM 59.2 °F 55.6 °F 88% 30.04 in 4.0 mi ENE 8.1 mph - 0.03 in Rain Light Rain
1:15 PM 58.5 °F 56.1 °F 92% 30.02 in 4.0 mi East 10.4 mph - N/A Rain , Thunderstorm Light Thunderstorms and Rain
1:35 PM 58.5 °F 56.1 °F 92% 30.03 in 10.0 mi ENE 5.8 mph - N/A Rain , Thunderstorm Rain
1:55 PM 59.0 °F 56.8 °F 93% 30.02 in 7.0 mi East 6.9 mph - N/A Thunderstorm Thunderstorm
2:15 PM 59.0 °F 56.8 °F 93% 30.01 in 10.0 mi East 8.1 mph - N/A Rain Light Rain
2:35 PM 59.0 °F 57.0 °F 93% 30.00 in 10.0 mi East 9.2 mph - N/A   Overcast
2:55 PM 59.9 °F 57.4 °F 91% 30.00 in 10.0 mi ESE 9.2 mph - N/A   Overcast
3:15 PM 59.5 °F 57.2 °F 92% 30.01 in 10.0 mi SE 8.1 mph - N/A   Overcast
3:35 PM 59.2 °F 57.2 °F 93% 29.99 in 10.0 mi ENE 5.8 mph - N/A   Light Drizzle
3:55 PM 59.2 °F 57.2 °F 93% 29.98 in 10.0 mi ENE 9.2 mph - N/A   Light Drizzle
4:15 PM 59.4 °F 57.6 °F 94% 29.94 in 7.0 mi ENE 12.7 mph - 0.02 in Rain Rain
4:35 PM 59.9 °F 58.1 °F 94% 29.91 in 10.0 mi ENE 12.7 mph 18.4 mph 0.03 in Rain Light Rain
4:55 PM 59.9 °F 58.5 °F 95% 29.90 in 10.0 mi ENE 11.5 mph - 0.04 in Rain Light Rain
5:15 PM 60.8 °F 58.8 °F 93% 29.92 in 10.0 mi East 11.5 mph 18.4 mph N/A   Overcast
5:35 PM 60.3 °F 58.3 °F 93% 29.93 in 10.0 mi East 10.4 mph 18.4 mph N/A   Overcast
5:55 PM 60.4 °F 58.5 °F 93% 29.94 in 10.0 mi ESE 8.1 mph 17.3 mph N/A   Overcast
6:15 PM 60.3 °F 58.3 °F 93% 29.95 in 7.0 mi ESE 6.9 mph - N/A   Overcast
6:35 PM 60.3 °F 58.3 °F 93% 29.96 in 10.0 mi SE 6.9 mph - N/A   Overcast
6:55 PM 60.3 °F 58.3 °F 93% 29.96 in 10.0 mi SE 8.1 mph - N/A   Overcast
7:15 PM 60.1 °F 58.3 °F 94% 29.96 in 10.0 mi SE 4.6 mph - N/A   Overcast
7:35 PM 60.1 °F 58.1 °F 93% 29.96 in 10.0 mi ESE 3.5 mph - N/A   Overcast
7:55 PM 60.1 °F 58.1 °F 93% 29.96 in 10.0 mi ESE 3.5 mph - N/A   Overcast
8:15 PM 59.9 °F 58.1 °F 94% 29.96 in 10.0 mi ESE 3.5 mph - N/A   Overcast
8:35 PM 59.9 °F 58.3 °F 94% 29.96 in 10.0 mi ESE 4.6 mph - N/A   Overcast
8:55 PM 59.9 °F 58.5 °F 95% 29.97 in 5.0 mi ESE 3.5 mph - N/A   Overcast
9:15 PM 59.9 °F 58.6 °F 96% 29.97 in 2.5 mi ESE 4.6 mph - N/A   Overcast
9:35 PM 59.9 °F 59.0 °F 97% 29.97 in 2.0 mi Calm Calm - N/A   Overcast
10:15 PM 59.9 °F 59.0 °F 97% 29.98 in 2.5 mi ESE 3.5 mph - N/A   Overcast
10:35 PM 59.9 °F 59.0 °F 97% 29.99 in 1.8 mi ESE 3.5 mph - N/A   Overcast
10:55 PM 60.1 °F 59.2 °F 97% 29.99 in 1.8 mi Calm Calm - N/A   Overcast
11:15 PM 60.1 °F 59.4 °F 97% 29.99 in 1.5 mi Calm Calm - N/A   Overcast
11:35 PM 60.3 °F 59.5 °F 97% 29.98 in 1.8 mi ESE 3.5 mph - N/A   Overcast
11:55 PM 60.3 °F 59.7 °F 98% 29.97 in 1.5 mi East 3.5 mph - N/A   Overcast